Location: ????? ????
(37.9717°N, 23.4051°E)
Time: 14:40:28
(UTC+00:00)

Cosmos 2151 Rocket - Pass Details

Date: 18 April 2024
Orbit: 616 x 638 km, 82.5° (Epoch: 18 May)

Event Time Altitude Azimuth Distance (km) Brightness Sun altitude
Exits shadow 18:18:15 12° 163° (SSE) 1,851 5.6 -14.2°
Maximum altitude 18:22:06 45° 93° (E) 848 3.8 -14.9°
Drops below altitude 10° 18:26:19 10° 20° (NNE) 2,000 6.3 -15.6°
Sets 18:28:37 0° 15° (NNE) 2,915 7.2 -16.0°
